SA3PJN-WX Weather Reports


Display with metric or nautical units.
time (UTC)temp
F
wind
direction
speed
MPH
gust
MPH
rain 1hr
in
rain 24hr
in
rain mn
in
humidity
%
barometer
mb
20260505204458 31 223 3.0 10.0 0.00 0.00 0.00 85 963.3
20260505203958 31 59 3.0 10.0 0.00 0.00 0.00 85 963.4
20260505203458 31 99 3.0 10.0 0.00 0.00 0.00 86 963.4
20260505202958 31 70 3.0 10.0 0.00 0.00 0.00 87 963.1
20260505202458 31 96 3.0 9.0 0.00 0.00 0.00 88 963.1
20260505201958 31 37 3.0 11.0 0.00 0.00 0.00 87 963.2
20260505201458 31 356 3.0 11.0 0.00 0.00 0.00 87 963.2
20260505200958 31 80 3.0 12.0 0.00 0.00 0.00 87 963.3
20260505200458 31 42 2.0 12.0 0.00 0.00 0.00 86 963.3
20260505195958 31 77 2.0 10.0 0.00 0.00 0.00 84 963.3
20260505195458 32 75 2.0 8.0 0.00 0.00 0.00 83 963.3
20260505194958 32 63 3.0 8.0 0.00 0.00 0.00 82 963.3
20260505194458 32 15 3.0 11.0 0.00 0.00 0.00 81 963.3
20260505193958 32 108 3.0 13.0 0.00 0.00 0.00 81 963.3
20260505193458 33 107 3.0 13.0 0.00 0.00 0.00 81 963.2
20260505192958 33 111 4.0 15.0 0.00 0.00 0.00 79 963.2
20260505192458 33 55 4.0 15.0 0.00 0.00 0.00 78 963.2
20260505191958 34 334 4.0 15.0 0.00 0.00 0.00 77 963.2
20260505191428 34 117 5.0 17.0 0.00 0.00 0.00 73 963.2
20260505190928 35 131 5.0 17.0 0.00 0.00 0.00 71 963.1
20260505190358 35 53 4.0 15.0 0.00 0.00 0.00 71 963.1
20260505185858 35 113 4.0 15.0 0.00 0.00 0.00 70 963.0
20260505185358 35 66 5.0 17.0 0.00 0.00 0.00 69 963.0
20260505184858 35 124 6.0 19.0 0.00 0.00 0.00 70 963.0
20260505184358 35 114 5.0 19.0 0.00 0.00 0.00 69 963.0
20260505183828 35 63 4.0 13.0 0.00 0.00 0.00 68 963.0
20260505183328 35 114 4.0 14.0 0.00 0.00 0.00 66 963.0
20260505182827 35 119 5.0 17.0 0.00 0.00 0.00 66 963.0
20260505182327 35 192 6.0 17.0 0.00 0.00 0.00 65 963.0
20260505181757 36 161 7.0 20.0 0.00 0.00 0.00 63 963.0
20260505181257 36 126 7.0 21.0 0.00 0.00 0.00 62 963.0
20260505180757 37 124 8.0 21.0 0.00 0.00 0.00 62 963.0
20260505180257 37 184 7.0 21.0 0.00 0.00 0.00 62 962.6
20260505175757 37 184 6.0 14.0 0.00 0.00 0.00 63 963.0
20260505175257 37 196 7.0 14.0 0.00 0.00 0.00 65 962.6
20260505174757 36 182 6.0 15.0 0.00 0.00 0.00 65 962.6
20260505174257 36 189 6.0 15.0 0.00 0.00 0.00 65 962.6
20260505173757 36 198 7.0 19.0 0.00 0.00 0.00 64 962.6
20260505173257 37 189 7.0 19.0 0.00 0.00 0.00 64 963.0
20260505172757 37 134 6.0 19.0 0.00 0.00 0.00 61 962.4
20260505172257 37 190 6.0 16.0 0.00 0.00 0.00 58 962.5
20260505171757 37 189 6.0 18.0 0.00 0.00 0.00 56 962.5
20260505171257 38 133 6.0 18.0 0.00 0.00 0.00 53 962.5
20260505170757 38 151 6.0 18.0 0.00 0.00 0.00 52 962.5
20260505170227 38 164 7.0 22.0 0.00 0.00 0.00 53 962.4
20260505165657 38 189 8.0 22.0 0.00 0.00 0.00 51 962.3
20260505165157 38 169 8.0 22.0 0.00 0.00 0.00 51 962.4
20260505164657 38 157 7.0 26.0 0.00 0.00 0.00 52 962.4
20260505164157 38 175 7.0 26.0 0.00 0.00 0.00 51 962.3
20260505163657 38 182 7.0 26.0 0.00 0.00 0.00 50 962.1
20260505163127 39 61 6.0 26.0 0.00 0.00 0.00 50 962.0
20260505162627 39 67 6.0 20.0 0.00 0.00 0.00 48 962.1
20260505162127 40 35 5.0 16.0 0.00 0.00 0.00 54 962.1
20260505161627 39 86 5.0 16.0 0.00 0.00 0.00 55 962.1
20260505161127 38 187 5.0 16.0 0.00 0.00 0.00 53 962.1
20260505160627 39 83 6.0 16.0 0.00 0.00 0.00 55 962.2
20260505153056 39 142 6.0 18.0 0.00 0.00 0.00 51 962.1
20260505152556 39 146 6.0 20.0 0.00 0.00 0.00 52 962.1
20260505152026 39 77 6.0 20.0 0.00 0.00 0.00 51 962.1
20260505151526 40 17 6.0 19.0 0.00 0.00 0.00 50 962.1
20260505151026 41 73 6.0 19.0 0.00 0.00 0.00 48 962.0
20260505150526 43 139 8.0 29.0 0.00 0.00 0.00 46 962.0
20260505140326 36 193 7.0 26.0 0.00 0.00 0.00 64 962.0
20260505130126 39 129 7.0 15.0 0.00 0.00 0.00 60 961.4
20260505124556 38 123 8.0 26.0 0.00 0.00 0.00 56 961.5
20260505124056 39 167 8.0 26.0 0.00 0.00 0.00 56 961.5
20260505123556 41 161 9.0 28.0 0.00 0.00 0.00 54 961.2
20260505123056 40 139 10.0 28.0 0.00 0.00 0.00 60 961.2
20260505122556 42 189 8.0 26.0 0.00 0.00 0.00 47 961.1
20260505122056 43 186 7.0 25.0 0.00 0.00 0.00 49 961.0
20260505121556 44 183 8.0 26.0 0.00 0.00 0.00 45 961.0
20260505121056 43 122 8.0 26.0 0.00 0.00 0.00 47 961.0
20260505120556 43 129 7.0 21.0 0.00 0.00 0.00 48 960.6
20260505120056 43 140 7.0 21.0 0.00 0.00 0.00 46 961.0
20260505115526 44 107 8.0 23.0 0.00 0.00 0.00 51 961.0
20260505114956 42 116 8.0 24.0 0.00 0.00 0.00 52 961.0
20260505114425 43 141 9.0 30.0 0.00 0.00 0.00 48 961.0
20260505113855 43 134 8.0 30.0 0.00 0.00 0.00 46 961.0
20260505113355 44 129 6.0 26.0 0.00 0.00 0.00 44 961.0
20260505112855 44 88 6.0 21.0 0.00 0.00 0.00 45 961.0
20260505112355 46 106 6.0 20.0 0.00 0.00 0.00 44 960.6
20260505111826 45 105 5.0 19.0 0.00 0.00 0.00 47 961.0
20260505111325 45 136 6.0 19.0 0.00 0.00 0.00 49 960.6
20260505110825 44 199 6.0 22.0 0.00 0.00 0.00 51 961.0
20260505110255 44 46 5.0 22.0 0.00 0.00 0.00 52 961.0
20260505101725 38 126 5.0 17.0 0.00 0.00 0.00 57 960.4
20260505101225 38 87 7.0 22.0 0.00 0.00 0.00 61 960.4
20260505100655 38 187 8.0 23.0 0.00 0.00 0.00 58 960.5
20260505100155 38 159 9.0 23.0 0.00 0.00 0.00 56 960.3
20260505095655 38 193 7.0 23.0 0.00 0.00 0.00 55 960.3
20260505095155 39 212 6.0 18.0 0.00 0.00 0.00 57 960.2
20260505094655 38 116 6.0 17.0 0.00 0.00 0.00 58 960.2
20260505094155 38 86 6.0 19.0 0.00 0.00 0.00 56 960.2
20260505093655 38 81 7.0 19.0 0.00 0.00 0.00 58 960.3
20260505093155 38 120 6.0 18.0 0.00 0.00 0.00 57 960.3
20260505092655 38 112 6.0 17.0 0.00 0.00 0.00 56 960.3
20260505092125 38 123 7.0 17.0 0.00 0.00 0.00 58 960.4
20260505091625 38 188 7.0 20.0 0.00 0.00 0.00 58 960.3
20260505091125 39 167 8.0 23.0 0.00 0.00 0.00 57 960.2
20260505090624 39 163 7.0 23.0 0.00 0.00 0.00 56 960.3
20260505090054 38 176 7.0 21.0 0.00 0.00 0.00 60 960.3
20260505085555 39 153 6.0 21.0 0.00 0.00 0.00 59 960.3
20260505085024 38 101 7.0 21.0 0.00 0.00 0.00 60 960.1
20260505084455 37 183 7.0 18.0 0.00 0.00 0.00 61 960.2
20260505083954 37 175 7.0 18.0 0.00 0.00 0.00 59 960.1
20260505083454 37 115 7.0 31.0 0.00 0.00 0.00 60 960.1
20260505082954 37 10 8.0 31.0 0.00 0.00 0.00 59 960.0
20260505082454 38 175 7.0 19.0 0.00 0.00 0.00 61 960.0
20260505081924 37 187 6.0 19.0 0.00 0.00 0.00 62 960.1
20260505081424 36 134 7.0 19.0 0.00 0.00 0.00 63 960.0
20260505080924 36 135 6.0 19.0 0.00 0.00 0.00 62 960.0
20260505080424 36 101 6.0 16.0 0.00 0.00 0.00 62 960.0
20260505075854 36 199 6.0 21.0 0.00 0.00 0.00 62 960.0
20260505075354 36 212 7.0 21.0 0.00 0.00 0.00 65 960.0
20260505074854 37 159 6.0 20.0 0.00 0.00 0.00 64 960.0
20260505074354 37 126 7.0 23.0 0.00 0.00 0.00 63 960.0
20260505073854 37 49 7.0 23.0 0.00 0.00 0.00 63 959.6
20260505073354 37 62 8.0 23.0 0.00 0.00 0.00 62 960.0
20260505072854 37 185 9.0 23.0 0.00 0.00 0.00 65 960.0
20260505072354 37 184 8.0 24.0 0.00 0.00 0.00 64 959.6
20260505071824 38 159 7.0 28.0 0.00 0.00 0.00 65 960.0
20260505071324 40 121 6.0 28.0 0.00 0.00 0.00 64 959.6
20260505070754 38 131 6.0 17.0 0.00 0.00 0.00 68 960.0
20260505070254 36 90 7.0 21.0 0.00 0.00 0.00 70 959.6
20260505065754 36 73 7.0 21.0 0.00 0.00 0.00 68 959.4
20260505065254 35 122 7.0 21.0 0.00 0.00 0.00 70 959.3
20260505064754 35 102 7.0 21.0 0.00 0.00 0.00 71 959.3
20260505064254 35 93 7.0 21.0 0.00 0.00 0.00 69 959.3
20260505063754 36 138 7.0 26.0 0.00 0.00 0.00 72 959.2
20260505063224 35 164 7.0 26.0 0.00 0.00 0.00 72 959.2
20260505062724 36 172 7.0 20.0 0.00 0.00 0.00 73 959.1
20260505062154 35 52 7.0 19.0 0.00 0.00 0.00 73 959.0
20260505061624 35 91 7.0 19.0 0.00 0.00 0.00 74 959.1
20260505061054 35 110 8.0 23.0 0.00 0.00 0.00 74 959.1
20260505060554 35 154 8.0 23.0 0.00 0.00 0.00 73 959.0
20260505060024 36 226 7.0 23.0 0.00 0.00 0.00 72 959.1
20260505055524 37 185 7.0 19.0 0.00 0.00 0.00 71 959.1
20260505055024 38 117 6.0 17.0 0.00 0.00 0.00 72 959.1
20260505054454 37 171 6.0 19.0 0.00 0.00 0.00 73 959.0
20260505053954 36 86 7.0 19.0 0.00 0.00 0.00 74 959.1
20260505053454 35 186 7.0 18.0 0.00 0.00 0.00 75 959.0
20260505052924 36 68 6.0 21.0 0.00 0.00 0.00 73 959.0
20260505052424 36 74 6.0 21.0 0.00 0.00 0.00 75 959.0
20260505051854 36 138 7.0 22.0 0.00 0.00 0.00 74 959.0
20260505051354 35 127 7.0 22.0 0.00 0.00 0.00 76 959.0
20260505050854 35 13 6.0 18.0 0.00 0.00 0.00 74 958.6
20260505050353 37 131 6.0 19.0 0.00 0.00 0.00 72 959.0
20260505041753 34 184 5.0 13.0 0.00 0.00 0.00 78 958.3
20260505041253 33 177 4.0 13.0 0.00 0.00 0.00 79 958.3
20260505040753 33 274 4.0 13.0 0.00 0.00 0.00 80 958.2
20260505040253 33 115 4.0 16.0 0.00 0.00 0.00 80 958.2
20260505035723 34 104 4.0 16.0 0.00 0.00 0.00 77 958.0
20260505035223 34 64 4.0 15.0 0.00 0.00 0.00 77 958.1
20260505034723 33 36 4.0 15.0 0.00 0.00 0.00 80 958.1
20260505034153 33 19 3.0 12.0 0.00 0.00 0.00 81 958.1
20260505033653 32 182 3.0 11.0 0.00 0.00 0.00 80 958.0
20260505033153 32 127 3.0 9.0 0.00 0.00 0.00 81 958.0
20260505032653 33 341 3.0 9.0 0.00 0.00 0.00 80 958.0
20260505032153 33 297 3.0 12.0 0.00 0.00 0.00 79 958.0
20260505031653 32 111 3.0 12.0 0.00 0.00 0.00 84 958.0
20260505031153 31 238 3.0 11.0 0.00 0.00 0.00 86 958.0
20260505030653 31 51 4.0 11.0 0.00 0.00 0.00 86 958.0
20260505030123 31 167 3.0 11.0 0.00 0.00 0.00 85 957.6
20260505025623 30 199 3.0 9.0 0.00 0.00 0.00 87 957.6
20260505025123 30 32 3.0 10.0 0.00 0.00 0.00 87 957.6
20260505024623 30 98 3.0 10.0 0.00 0.00 0.00 87 957.6
20260505024123 30 157 3.0 9.0 0.00 0.00 0.00 87 957.5
20260505023553 30 95 3.0 13.0 0.00 0.00 0.00 87 957.5
20260505023053 30 202 3.0 13.0 0.00 0.00 0.00 86 957.5
20260505022553 31 156 4.0 11.0 0.00 0.00 0.00 86 957.5
20260505022053 31 121 4.0 13.0 0.00 0.00 0.00 85 957.4
20260505021553 31 256 5.0 15.0 0.00 0.00 0.00 84 957.3
20260505021053 31 161 5.0 15.0 0.00 0.00 0.00 84 957.2
20260505020553 31 191 5.0 15.0 0.00 0.00 0.00 84 957.3
20260505020053 31 187 5.0 13.0 0.00 0.00 0.00 83 957.2
20260505015553 32 186 5.0 15.0 0.00 0.00 0.00 82 957.2
20260505015052 32 82 5.0 15.0 0.00 0.00 0.00 82 957.1
20260505014552 32 184 5.0 15.0 0.00 0.00 0.00 82 957.3
20260505014052 32 194 4.0 15.0 0.00 0.00 0.00 81 957.2
20260505013552 32 47 4.0 14.0 0.00 0.00 0.00 81 957.1
20260505013022 32 152 4.0 14.0 0.00 0.00 0.00 82 957.2
20260505012522 32 222 5.0 17.0 0.00 0.00 0.00 82 957.0
20260505012022 32 154 5.0 17.0 0.00 0.00 0.00 82 957.0
20260505011452 32 93 6.0 15.0 0.00 0.00 0.00 82 957.0
20260505010952 32 147 6.0 15.0 0.00 0.00 0.00 82 957.0
20260505010452 33 151 6.0 16.0 0.00 0.00 0.00 82 956.6
20260505005952 33 127 5.0 16.0 0.00 0.00 0.00 82 956.6
20260505005422 33 196 6.0 16.0 0.00 0.00 0.00 82 956.6
20260505004852 33 139 6.0 16.0 0.00 0.00 0.00 82 956.5
20260505004352 33 146 6.0 17.0 0.00 0.00 0.00 82 956.6
20260505003852 33 183 6.0 17.0 0.00 0.00 0.00 82 956.5
20260505003352 33 143 5.0 15.0 0.00 0.00 0.00 82 956.4
20260505002852 33 128 6.0 16.0 0.00 0.00 0.00 82 956.3
20260505002352 33 102 6.0 21.0 0.00 0.00 0.00 82 956.3
20260505001852 33 195 6.0 21.0 0.00 0.00 0.00 82 956.2
20260505001322 33 219 5.0 17.0 0.00 0.00 0.00 82 956.2
20260505000822 33 33 5.0 17.0 0.00 0.00 0.00 82 956.2
20260505000322 33 249 6.0 17.0 0.00 0.00 0.00 82 956.1
20260504235822 33 151 6.0 16.0 0.00 0.00 0.00 82 956.2
20260504235252 33 100 5.0 15.0 0.00 0.00 0.00 83 956.1
20260504234722 33 174 6.0 15.0 0.00 0.00 0.00 82 956.1
20260504234222 33 84 6.0 19.0 0.00 0.00 0.00 83 956.0
20260504233722 33 90 6.0 19.0 0.00 0.00 0.00 83 956.0
20260504233222 33 137 5.0 17.0 0.00 0.00 0.00 83 956.0
20260504232722 33 119 5.0 18.0 0.00 0.00 0.00 83 956.0
20260504232222 33 196 5.0 18.0 0.00 0.00 0.00 83 956.0
20260504231722 33 133 5.0 17.0 0.00 0.00 0.00 83 956.0
20260504231152 33 97 5.0 17.0 0.00 0.00 0.00 84 956.0
20260504230652 33 112 5.0 17.0 0.00 0.00 0.00 84 956.0
20260504230152 33 156 5.0 15.0 0.00 0.00 0.00 84 956.0
20260504225652 33 101 5.0 18.0 0.00 0.00 0.00 84 956.0
20260504225122 33 122 5.0 18.0 0.00 0.00 0.00 83 956.0
20260504224622 33 171 5.0 18.0 0.00 0.00 0.00 82 956.0
20260504224122 33 144 5.0 17.0 0.00 0.00 0.00 82 956.0
20260504223622 33 91 5.0 19.0 0.00 0.00 0.00 81 956.0
20260504223052 33 53 5.0 19.0 0.00 0.00 0.00 81 956.0
20260504222522 33 209 4.0 17.0 0.00 0.00 0.00 80 956.0
20260504222022 33 2 4.0 17.0 0.00 0.00 0.00 79 956.0
20260504221522 33 127 4.0 14.0 0.00 0.00 0.00 78 956.0
20260504220952 33 91 5.0 14.0 0.00 0.00 0.00 78 956.0
20260504220452 33 118 5.0 14.0 0.00 0.00 0.00 77 955.6
20260504215952 33 119 5.0 19.0 0.00 0.00 0.00 77 955.6
20260504215452 33 133 5.0 19.0 0.00 0.00 0.00 76 956.0
20260504214952 33 39 5.0 19.0 0.00 0.00 0.00 77 955.6
20260504214452 33 15 5.0 18.0 0.00 0.00 0.00 76 955.6
20260504213951 33 5 6.0 18.0 0.00 0.00 0.00 75 955.6
20260504213451 33 155 5.0 17.0 0.00 0.00 0.00 74 955.5
20260504212951 34 171 4.0 14.0 0.00 0.00 0.00 74 956.0
20260504212421 33 349 3.0 13.0 0.00 0.00 0.00 75 956.0
20260504211921 33 46 3.0 12.0 0.00 0.00 0.00 75 956.0
20260504211421 33 67 3.0 12.0 0.00 0.00 0.00 74 956.0
20260504210851 33 91 3.0 12.0 0.00 0.00 0.00 73 956.0
20260504210351 33 37 3.0 13.0 0.00 0.00 0.00 72 956.0
20260504205851 33 59 4.0 13.0 0.00 0.00 0.00 71 956.0
20260504205351 33 102 3.0 15.0 0.00 0.00 0.00 70 956.0